User: anonymous   Login
Location: Unspecified
(0.0000°N, 0.0000°E)
Time: 08:55:34
(UTC+00:00)
Language:

Kosmos-2195 - Orbit

View from above orbital plane
View from above orbital plane
View from above satellite
View from above satellite

Ground track
Ground track

The orbit is defined by the following mean orbital elements,

1 22006U          26103.73216786 +.00000000 +00000-0 +58919-4 0 00001
2 22006  82.9302 105.9798 0038446  94.0185  79.5835 13.75185891    02
Epoch (UTC): 13 April 2026 17:34:19
Eccentricity: 0.0038446
inclination: 82.9302°
perigee height: 953 km
apogee height: 1009 km
right ascension of ascending node: 105.9798°
argument of perigee: 94.0185°
revolutions per day: 13.75185891
mean anomaly at epoch: 79.5835°

The dashed part of the orbit path shows where the satellite is in the earth's shadow,  

DLR